星链-37391(STARLINK-37391)

导读

STARLINK-37391(NORAD编号68779)是SpaceX星链(Starlink)星座中的一颗低轨互联网通信卫星,隶属于星链第二代组网任务。星链项目旨在构建覆盖全球的天基宽带互联网,为偏远地区、网络覆盖不足区域提供高速互联网接入服务。 该卫星运行在近地轨道,轨道周期约90余分钟,通过猎鹰9号火箭执行发射任务,属于SpaceX批量组网的卫星之一。截至2025年,星链星座活跃卫星已超7600颗,STARLINK-37399是SpaceX持续扩大星座覆盖、提升服务容量的重要组成部分,支持包括手机直连在内的新一代星链通信服务能力。

基本信息
目录编号:
68779
目录名称:
STARLINK-37391
国际标识:
2026-086P
轨道中心:
EARTH
卫星名称:
星链-37391
卫星全名:
星链-37391(STARLINK-37391)
卫星状态:
在轨 (已飞行138 天)
发射日期:
2026-04-19 UTC
国别 :
美国 (US)
星等 :
--
轨道信息
数据来源 国际轨道数据
星历时间: 2026-09-04T09:03:54+0800
9小时前
查看轨道信息
半长轴: 6843.669km
偏心率: 0.0001422
轨道倾角: 97.285°
近地点辐角 120.183°
升交点赤经 282.717°
平近点角 239.955°
近地点: 464.558km
远地点: 466.506km
周期: 93.906分钟
每日圈数: 15.334489
详细信息
固有亮度:
5
最大亮度:
2.5
卫星平台:
Starlink V1.0
覆盖范围:
全球
运营商:
太空探索技术公司
运营商所在国:
美国
制造商(研发单位):
太空探索技术公司
制造商所在国:
美国
使用方式:
暂无
卫星简介
Starlink 计划是 SpaceX 推出的全球卫星互联网项目,通过发射低轨道卫星,为全球尤其是偏远地区提供高速、低延迟的互联网服务。自 2019 年起,Starlink 已部署数千颗卫星,旨在缩小全球数字鸿沟,推动互联网普及。该项目还为军事、航空等行业提供通信支持,带来广泛经济效益。
2D轨道图
3D轨道图
轨道高度分析图
轨道倾角分析图
轨道综合分析图
查看轨道综合分析图
交会数据列表
事件ID 空间交会对象 最接近时刻(TCA) 交会距离 交会风险概率(CRP) 交会风险指数(CRI) 操作
CDM_260905-070006-547606-877921
2026-09-05T
07:00:41+0000
2.286 km
极远距离
2.029917E-6 低风险 0.41
CDM_260906-171804-779906-877921
2026-09-06T
17:18:16+0000
2.567 km
极远距离
1.673485E-6 低风险 0.39
CDM_260905-034004-777206-877921
2026-09-05T
03:40:36+0000
2.873 km
极远距离
1.411653E-6 低风险 0.38
CDM_260904-081705-363606-877921
2026-09-04T
08:17:25+0000
2.987 km
极远距离
1.315241E-6 低风险 0.37
CDM_260905-041404-603406-877921
2026-09-05T
04:14:21+0000
2.829 km
极远距离
1.222396E-6 低风险 0.37
CDM_260904-171704-832906-877921
2026-09-04T
17:17:49+0000
2.963 km
极远距离
1.04098E-6 低风险 0.35